Regional Weather Roundup
Issued by NWS Tiyan, Guam

Home | Current Version | Previous Version | Text Only | Print | Product List | Glossary On
Versions: 1 2 3 4 5 6 7 8 9 10 11 12 13 14 15 16 17 18 19 20 21 22 23 24 25 26 27 28 29 30 31 32 33 34 35 36 37 38 39 40 41 42 43 44 45 46 47 48 49
000
ASGM40 PGUM 270612
RWRGUM
WEATHER ROUNDUP FOR THE MARIANAS
NATIONAL WEATHER SERVICE TIYAN GU
400 PM CHST THU NOV 27 2014

GUZ001>004-270700-
MARIANA ISLANDS-

CITY           SKY/WX    TMP DP  RH WIND       PRES   REMARKS
GUAM AIRPORT   CLOUDY    84  77  79 NE20      29.83S HX  94
ANDERSEN AFB   LGT RAIN  82  77  83 NE22G30   29.83S HX  91
ROTA AIRPORT   PTSUNNY   82  75  78 NE16      29.85R
TINIAN AP      MOSUNNY   84  73  70 E17       29.84R HX  91
SAIPAN AP      MOSUNNY   84  73  70 E21G28    29.85R HX  91

$$



USA.gov is the U.S. government's official web portal to all federal, state and local government web resources and services.